WD5U-1 Weather Reports


time (UTC)temp
C
wind
direction
speed
KPH
gust
KPH
rain 1hr
cm
rain 24hr
cm
rain mn
cm
humidity
%
barometer
mb
20260509185816 30 96 6.4 9.7 0.00 0.00 0.00 50 1011.8
20260509185625 30 78 8.0 12.9 0.00 0.00 0.00 51 1011.9
20260509185423 30 63 9.7 12.9 0.00 0.00 0.00 54 1011.9
20260509185222 30 66 6.4 9.7 0.00 0.00 0.00 52 1011.8
20260509185021 29 72 6.4 9.7 0.00 0.00 0.00 53 1011.8
20260509184819 30 36 12.9 16.1 0.00 0.00 0.00 54 1011.9
20260509184618 29 68 11.3 16.1 0.00 0.00 0.00 53 1011.9
20260509184436 30 49 9.7 14.5 0.00 0.00 0.00 53 1012.0
20260509184225 30 64 12.9 19.3 0.00 0.00 0.00 52 1012.0
20260509184026 31 52 9.7 16.1 0.00 0.00 0.00 50 1012.0
20260509183822 31 51 4.8 6.4 0.00 0.00 0.00 51 1012.1
20260509183621 30 273 1.6 3.2 0.00 0.00 0.00 54 1012.0
20260509183419 30 67 6.4 9.7 0.00 0.00 0.00 53 1011.9
20260509183218 30 62 9.7 14.5 0.00 0.00 0.00 53 1012.0
20260509183036 29 38 6.4 9.7 0.00 0.00 0.00 49 1012.3
20260509182825 29 37 8.0 17.7 0.00 0.00 0.00 46 1012.1
20260509182623 30 36 14.5 20.9 0.00 0.00 0.00 50 1012.1
20260509182444 30 5 3.2 6.4 0.00 0.00 0.00 50 1012.2
20260509182220 29 40 4.8 9.7 0.00 0.00 0.00 49 1012.1
20260509182019 30 51 11.3 14.5 0.00 0.00 0.00 54 1012.2
20260509181817 30 24 3.2 3.2 0.00 0.00 0.00 53 1012.2
20260509181616 30 338 3.2 6.4 0.00 0.00 0.00 54 1012.4
20260509181427 30 123 1.6 3.2 0.00 0.00 0.00 51 1012.2
20260509181243 30 41 6.4 8.0 0.00 0.00 0.00 51 1012.4
20260509181022 28 59 3.2 4.8 0.00 0.00 0.00 53 1012.3
20260509180824 28 48 11.3 17.7 0.00 0.00 0.00 56 1012.4
20260509180620 30 52 14.5 20.9 0.00 0.00 0.00 56 1012.3
20260509180417 30 54 4.8 8.0 0.00 0.00 0.00 57 1012.2
20260509180216 29 8 8.0 16.1 0.00 0.00 0.00 57 1012.4
20260509180045 30 55 8.0 14.5 0.00 0.00 0.00 57 1012.4
20260509175823 29 104 4.8 9.7 0.00 0.00 0.00 59 1012.6
20260509175622 28 313 3.2 8.0 0.00 0.00 0.00 58 1012.4
20260509175420 28 356 0.0 4.8 0.00 0.00 0.00 58 1012.4
20260509175219 28 269 6.4 9.7 0.00 0.00 0.00 58 1012.5
20260509175020 28 47 4.8 8.0 0.00 0.00 0.00 58 1012.6
20260509174816 27 45 8.0 14.5 0.00 0.00 0.00 58 1012.4
20260509174625 27 45 12.9 17.7 0.00 0.00 0.00 60 1012.6
20260509174423 28 33 12.9 17.7 0.00 0.00 0.00 58 1012.6
20260509174222 28 18 11.3 25.7 0.00 0.00 0.00 59 1012.7
20260509174042 28 5 4.8 6.4 0.00 0.00 0.00 61 1012.5
20260509173819 28 336 6.4 9.7 0.00 0.00 0.00 60 1012.7
20260509173617 28 47 4.8 6.4 0.00 0.00 0.00 60 1012.7
20260509173416 28 67 8.0 11.3 0.00 0.00 0.00 59 1012.7
20260509173225 28 34 6.4 8.0 0.00 0.00 0.00 58 1012.7
20260509173023 29 13 6.4 11.3 0.00 0.00 0.00 59 1012.8
20260509172822 28 13 8.0 9.7 0.00 0.00 0.00 60 1012.8
20260509172623 29 31 9.7 14.5 0.00 0.00 0.00 59 1012.8
20260509172419 29 130 3.2 6.4 0.00 0.00 0.00 59 1012.7
20260509172217 28 49 6.4 9.7 0.00 0.00 0.00 61 1012.9
20260509172016 28 36 6.4 11.3 0.00 0.00 0.00 61 1012.8
20260509171825 28 34 6.4 11.3 0.00 0.00 0.00 62 1012.9
20260509171623 28 331 1.6 3.2 0.00 0.00 0.00 61 1012.8
20260509171421 28 332 3.2 8.0 0.00 0.00 0.00 60 1012.9
20260509171220 28 18 4.8 11.3 0.00 0.00 0.00 60 1013.0
20260509171020 28 38 6.4 9.7 0.00 0.00 0.00 60 1013.0
20260509170817 28 35 9.7 14.5 0.00 0.00 0.00 61 1013.1
20260509170616 28 12 4.8 9.7 0.00 0.00 0.00 61 1013.0
20260509170505 28 220 3.2 4.8 0.00 0.00 0.00 61 1013.0
20260509170225 27 26 4.8 6.4 0.00 0.00 0.00 60 1013.1
20260509170024 28 44 6.4 14.5 0.00 0.00 0.00 61 1013.2
20260509165820 28 50 4.8 8.0 0.00 0.00 0.00 60 1013.0
20260509165618 28 35 9.7 14.5 0.00 0.00 0.00 59 1013.1
20260509165417 28 65 3.2 6.4 0.00 0.00 0.00 59 1013.0
20260509165236 28 89 3.2 6.4 0.00 0.00 0.00 60 1013.2
20260509165024 28 40 4.8 8.0 0.00 0.00 0.00 59 1013.3
20260509164845 27 24 4.8 6.4 0.00 0.00 0.00 60 1013.4
20260509164624 27 8 4.8 8.0 0.00 0.00 0.00 62 1013.3
20260509164424 27 334 8.0 12.9 0.00 0.00 0.00 63 1013.3
20260509164219 27 10 4.8 8.0 0.00 0.00 0.00 63 1013.3
20260509164017 27 26 6.4 9.7 0.00 0.00 0.00 63 1013.2
20260509163828 26 314 6.4 8.0 0.00 0.00 0.00 66 1013.1
20260509163624 26 273 4.8 6.4 0.00 0.00 0.00 63 1013.3
20260509163423 27 264 3.2 6.4 0.00 0.00 0.00 63 1013.2
20260509163221 26 249 3.2 6.4 0.00 0.00 0.00 65 1013.3
20260509163020 27 289 8.0 8.0 0.00 0.00 0.00 63 1013.2
20260509162823 26 328 1.6 4.8 0.00 0.00 0.00 64 1013.4
20260509162637 27 3 6.4 11.3 0.00 0.00 0.00 63 1013.3
20260509162425 26 351 3.2 6.4 0.00 0.00 0.00 64 1013.2
20260509162224 27 302 3.2 6.4 0.00 0.00 0.00 62 1013.2
20260509162043 26 70 3.2 4.8 0.00 0.00 0.00 63 1013.2
20260509161841 26 346 4.8 11.3 0.00 0.00 0.00 65 1013.2
20260509161640 27 3 8.0 12.9 0.00 0.00 0.00 65 1013.3
20260509161418 26 22 8.0 9.7 0.00 0.00 0.00 64 1013.2
20260509161217 26 285 6.4 9.7 0.00 0.00 0.00 66 1013.2
20260509161025 26 333 1.6 6.4 0.00 0.00 0.00 65 1013.2
20260509160824 26 350 1.6 3.2 0.00 0.00 0.00 65 1013.2
20260509160622 27 287 6.4 9.7 0.00 0.00 0.00 64 1013.2
20260509160421 27 123 1.6 4.8 0.00 0.00 0.00 61 1013.3
20260509160220 27 5 1.6 4.8 0.00 0.00 0.00 62 1013.2
20260509160018 26 46 3.2 4.8 0.00 0.00 0.00 64 1013.4
20260509155817 26 31 6.4 8.0 0.00 0.00 0.00 65 1013.3
20260509155806 26 38 6.4 9.7 0.00 0.00 0.00 66 1013.2
20260509155424 26 323 4.8 9.7 0.00 0.00 0.00 66 1013.3
20260509155223 26 6 4.8 11.3 0.00 0.00 0.00 67 1013.3
20260509155023 26 27 4.8 8.0 0.00 0.00 0.00 66 1013.1
20260509154820 25 321 4.8 9.7 0.00 0.00 0.00 70 1013.2
20260509154658 26 310 6.4 9.7 0.00 0.00 0.00 68 1013.3
20260509154417 25 302 1.6 4.8 0.00 0.00 0.00 67 1013.3
20260509154225 25 323 1.6 3.2 0.00 0.00 0.00 68 1013.4
20260509154024 25 300 4.8 9.7 0.00 0.00 0.00 69 1013.1
20260509153823 25 330 8.0 9.7 0.00 0.00 0.00 68 1013.1
20260509153622 26 13 3.2 6.4 0.00 0.00 0.00 66 1013.0
20260509153421 26 13 4.8 6.4 0.00 0.00 0.00 67 1013.2
20260509153240 26 12 6.4 8.0 0.00 0.00 0.00 69 1013.1
20260509153017 25 78 1.6 3.2 0.00 0.00 0.00 69 1013.1
20260509152826 25 277 4.8 8.0 0.00 0.00 0.00 70 1013.2
20260509152624 25 330 4.8 8.0 0.00 0.00 0.00 71 1013.1
20260509152422 25 354 3.2 6.4 0.00 0.00 0.00 70 1013.1
20260509152221 24 266 6.4 8.0 0.00 0.00 0.00 75 1013.2
20260509152020 24 218 6.4 9.7 0.00 0.00 0.00 75 1013.1
20260509151818 24 255 9.7 14.5 0.00 0.00 0.00 76 1013.2
20260509151637 24 255 9.7 12.9 0.00 0.00 0.00 74 1013.2
20260509151425 24 316 4.8 6.4 0.00 0.00 0.00 75 1013.2
20260509151224 23 256 8.0 11.3 0.00 0.00 0.00 77 1013.0
20260509151023 23 277 4.8 8.0 0.00 0.00 0.00 75 1013.2
20260509150841 23 252 9.7 11.3 0.00 0.00 0.00 75 1013.1
20260509150620 23 258 9.7 12.9 0.00 0.00 0.00 78 1013.2
20260509150438 24 270 9.7 12.9 0.00 0.00 0.00 76 1013.1
20260509150216 23 315 1.6 4.8 0.00 0.00 0.00 75 1013.1
20260509150026 23 273 8.0 9.7 0.00 0.00 0.00 77 1013.2
20260509145824 23 259 4.8 8.0 0.00 0.00 0.00 78 1013.2
20260509145622 23 244 8.0 9.7 0.00 0.00 0.00 77 1013.1
20260509145421 23 257 8.0 9.7 0.00 0.00 0.00 79 1013.1
20260509145220 23 273 9.7 14.5 0.00 0.00 0.00 80 1013.2
20260509145018 23 304 6.4 9.7 0.00 0.00 0.00 79 1013.0
20260509144816 23 316 6.4 9.7 0.00 0.00 0.00 79 1013.1
20260509144625 23 308 4.8 6.4 0.00 0.00 0.00 81 1012.9
20260509144424 23 255 11.3 14.5 0.00 0.00 0.00 82 1013.1
20260509144222 22 251 11.3 14.5 0.00 0.00 0.00 81 1013.0
20260509144022 22 263 9.7 12.9 0.00 0.00 0.00 82 1013.1
20260509143819 22 276 11.3 14.5 0.00 0.00 0.00 82 1013.3
20260509143618 22 294 8.0 11.3 0.00 0.00 0.00 82 1013.1
20260509143417 22 276 9.7 12.9 0.00 0.00 0.00 82 1013.1
20260509143225 22 272 11.3 14.5 0.00 0.00 0.00 83 1013.0
20260509143044 22 297 9.7 14.5 0.00 0.00 0.00 83 1012.9
20260509142822 22 272 12.9 16.1 0.00 0.00 0.00 83 1013.0
20260509142641 22 296 8.0 9.7 0.00 0.00 0.00 82 1013.2
20260509142419 22 264 9.7 11.3 0.00 0.00 0.00 83 1012.9
20260509142221 22 258 8.0 11.3 0.00 0.00 0.00 83 1013.2
20260509142020 22 253 9.7 11.3 0.00 0.00 0.00 83 1013.0
20260509141825 22 252 8.0 9.7 0.00 0.00 0.00 83 1013.2
20260509141624 22 270 6.4 8.0 0.00 0.00 0.00 84 1013.2
20260509141442 22 269 9.7 11.3 0.00 0.00 0.00 83 1013.2
20260509141221 22 265 8.0 9.7 0.00 0.00 0.00 85 1013.1
20260509141019 22 290 4.8 8.0 0.00 0.00 0.00 84 1013.1
20260509140818 22 259 4.8 6.4 0.00 0.00 0.00 84 1012.9
20260509140616 22 258 4.8 6.4 0.00 0.00 0.00 83 1013.0
20260509140428 22 272 4.8 6.4 0.00 0.00 0.00 83 1013.3
20260509140227 22 273 6.4 9.7 0.00 0.00 0.00 84 1013.3
20260509140022 22 264 6.4 8.0 0.00 0.00 0.00 83 1013.2
20260509135821 22 296 8.0 9.7 0.00 0.00 0.00 84 1013.2
20260509135619 21 270 8.0 9.7 0.00 0.00 0.00 84 1013.1
20260509135418 21 323 6.4 6.4 0.00 0.00 0.00 83 1013.0
20260509135216 21 281 4.8 8.0 0.00 0.00 0.00 84 1013.0
20260509135025 21 312 4.8 6.4 0.00 0.00 0.00 84 1013.0
20260509134826 21 275 8.0 9.7 0.00 0.00 0.00 84 1013.0
20260509134622 21 249 9.7 11.3 0.00 0.00 0.00 84 1013.0
20260509134421 21 289 8.0 9.7 0.00 0.00 0.00 84 1013.0
20260509134219 21 295 8.0 11.3 0.00 0.00 0.00 84 1013.1
20260509134018 21 280 11.3 12.9 0.00 0.00 0.00 83 1013.2
20260509133816 21 287 6.4 9.7 0.00 0.00 0.00 83 1013.1
20260509133625 21 294 8.0 11.3 0.00 0.00 0.00 83 1013.0
20260509133423 21 296 6.4 9.7 0.00 0.00 0.00 84 1013.0
20260509133242 21 305 8.0 9.7 0.00 0.00 0.00 84 1013.2
20260509133023 21 293 8.0 9.7 0.00 0.00 0.00 84 1012.9
20260509132821 21 289 8.0 9.7 0.00 0.00 0.00 85 1013.0
20260509132617 21 305 9.7 11.3 0.00 0.00 0.00 85 1012.9
20260509132416 20 298 8.0 9.7 0.00 0.00 0.00 85 1012.8
20260509132225 20 289 9.7 11.3 0.00 0.00 0.00 86 1013.0
20260509132024 20 298 8.0 9.7 0.00 0.00 0.00 86 1012.9
20260509131822 20 311 9.7 11.3 0.00 0.00 0.00 86 1013.0
20260509131620 20 312 9.7 11.3 0.00 0.00 0.00 87 1013.1
20260509131422 20 302 8.0 9.7 0.00 0.00 0.00 87 1013.0
20260509131217 20 320 8.0 9.7 0.00 0.00 0.00 88 1013.1
20260509131016 20 320 6.4 9.7 0.00 0.00 0.00 88 1012.9
20260509130825 20 318 8.0 11.3 0.00 0.00 0.00 89 1012.8
20260509130623 20 312 9.7 11.3 0.00 0.00 0.00 88 1013.2
20260509130422 20 305 8.0 11.3 0.00 0.00 0.00 88 1013.0
20260509130220 19 297 6.4 9.7 0.00 0.00 0.00 89 1012.9
20260509130019 19 277 6.4 8.0 0.00 0.00 0.00 89 1013.0
20260509125817 19 309 6.4 11.3 0.00 0.00 0.00 89 1012.9
20260509125616 19 309 8.0 11.3 0.00 0.00 0.00 90 1012.9
20260509125425 19 310 8.0 9.7 0.00 0.00 0.00 90 1012.9
20260509125223 18 318 8.0 9.7 0.00 0.00 0.00 90 1012.8
20260509125022 18 313 9.7 11.3 0.00 0.00 0.00 91 1012.9
20260509124840 18 286 9.7 11.3 0.00 0.00 0.00 91 1012.9
20260509124619 18 291 9.7 12.9 0.00 0.00 0.00 92 1013.1
20260509124417 18 283 8.0 11.3 0.00 0.05 0.00 92 1013.1
20260509124236 18 281 9.7 9.7 0.00 0.05 0.00 92 1013.2
20260509124024 18 281 6.4 6.4 0.00 0.15 0.00 92 1013.1
20260509123826 18 293 4.8 6.4 0.00 0.25 0.00 92 1013.0
20260509123621 18 291 4.8 6.4 0.00 0.38 0.00 93 1012.8
20260509123420 18 291 4.8 6.4 0.00 0.43 0.00 93 1012.8
20260509123319 17 272 6.4 8.0 0.00 0.48 0.00 94 1013.0
20260509123019 17 261 8.0 8.0 0.00 0.51 0.00 94 1013.0
20260509122818 17 243 8.0 11.3 0.00 0.51 0.00 94 1012.9
20260509122624 17 233 6.4 8.0 0.00 0.51 0.00 94 1012.8
20260509122425 17 246 6.4 8.0 0.00 0.51 0.00 94 1012.7
20260509122222 17 245 4.8 4.8 0.00 0.51 0.00 94 1012.7
20260509122020 17 261 3.2 4.8 0.00 0.51 0.00 95 1012.7
20260509121819 17 273 4.8 6.4 0.00 0.51 0.00 95 1012.5
20260509121617 17 268 6.4 6.4 0.00 0.51 0.00 95 1012.7
20260509121416 17 238 4.8 6.4 0.00 0.51 0.00 95 1012.7
20260509121249 17 206 8.0 9.7 0.00 0.51 0.00 95 1012.7
20260509121023 17 206 9.7 11.3 0.00 0.51 0.00 95 1012.5
20260509120942 17 208 6.4 9.7 0.00 0.51 0.00 95 1012.5
20260509120640 17 245 6.4 9.7 0.00 0.51 0.00 95 1012.4
20260509120419 17 250 4.8 6.4 0.00 0.51 0.00 95 1012.3
20260509120300 17 274 6.4 9.7 0.00 0.51 0.00 95 1012.3
20260509120036 17 285 6.4 8.0 0.00 0.51 0.00 96 1012.4
20260509115826 17 260 6.4 8.0 0.00 0.51 0.00 96 1012.5
20260509115623 17 247 8.0 11.3 0.00 0.51 0.00 96 1012.5
20260509115421 17 238 6.4 9.7 0.00 0.51 0.00 96 1012.6
20260509115240 17 240 8.0 11.3 0.00 0.51 0.00 96 1012.2
20260509115021 17 254 8.0 9.7 0.00 0.51 0.00 96 1012.2
20260509114817 17 257 8.0 9.7 0.00 0.51 0.00 96 1012.3
20260509114616 17 268 9.7 12.9 0.00 0.51 0.00 96 1012.3
20260509114427 17 263 11.3 14.5 0.00 0.51 0.00 96 1012.2
20260509114223 17 252 9.7 14.5 0.00 0.51 0.00 97 1012.3
20260509114022 17 252 9.7 11.3 0.00 0.51 0.00 97 1012.4
20260509113820 17 250 6.4 8.0 0.00 0.51 0.00 97 1012.2
20260509113623 17 238 6.4 8.0 0.00 0.51 0.00 97 1012.3
20260509113417 17 224 4.8 6.4 0.00 0.51 0.00 97 1012.3
20260509113216 17 245 4.8 6.4 0.00 0.51 0.00 97 1012.2
20260509113027 17 234 6.4 9.7 0.00 0.51 0.00 97 1012.1
20260509112823 17 236 8.0 11.3 0.00 0.51 0.00 97 1012.2
20260509112621 17 228 8.0 9.7 0.00 0.51 0.00 97 1012.2
20260509112440 17 226 9.7 11.3 0.00 0.51 0.00 97 1011.9
20260509112221 17 239 9.7 12.9 0.00 0.51 0.00 98 1012.1
20260509112019 17 256 9.7 11.3 0.00 0.51 0.00 98 1011.9
20260509111816 17 255 11.3 14.5 0.00 0.51 0.00 98 1011.8
20260509111624 17 249 12.9 16.1 0.00 0.51 0.00 98 1011.8
20260509111423 17 231 8.0 9.7 0.00 0.53 0.00 98 1012.0
20260509111222 17 221 8.0 11.3 0.00 0.53 0.00 98 1012.0
20260509111020 17 237 8.0 9.7 0.00 0.53 0.00 98 1011.8
20260509110819 17 268 6.4 8.0 0.00 0.56 0.00 98 1011.6
20260509110617 17 275 4.8 6.4 0.00 0.56 0.00 98 1011.5
20260509110415 17 308 6.4 6.4 0.00 0.56 0.00 98 1011.4
20260509110224 17 326 4.8 6.4 0.00 0.56 0.00 98 1011.4
20260509110023 17 345 4.8 6.4 0.00 0.56 0.00 98 1011.3
20260509105841 17 345 4.8 8.0 0.00 0.56 0.00 97 1011.3
20260509105620 17 356 4.8 6.4 0.00 0.56 0.00 97 1011.3
20260509105418 17 354 4.8 6.4 0.00 0.56 0.00 97 1011.3
20260509105221 17 12 6.4 8.0 0.00 0.56 0.00 97 1011.3
20260509105019 17 24 6.4 8.0 0.00 0.56 0.00 97 1011.4
20260509104845 18 35 6.4 6.4 0.00 0.56 0.00 97 1011.3
20260509104643 18 33 6.4 8.0 0.00 0.56 0.00 97 1011.3
20260509104421 18 43 6.4 8.0 0.00 0.56 0.00 97 1011.4
20260509104220 18 31 4.8 6.4 0.00 0.56 0.00 97 1011.2
20260509104020 18 31 6.4 8.0 0.00 0.56 0.00 97 1011.2
20260509103837 18 33 8.0 11.3 0.00 0.56 0.00 97 1011.3
20260509103616 18 32 11.3 12.9 0.00 0.56 0.00 97 1011.3
20260509103424 18 32 11.3 14.5 0.00 0.56 0.00 97 1011.4
20260509103223 18 27 11.3 14.5 0.00 0.56 0.00 97 1011.2
20260509103021 18 30 11.3 14.5 0.00 0.56 0.00 97 1011.2
20260509102820 18 31 11.3 14.5 0.00 0.56 0.00 97 1011.1
20260509102622 18 27 12.9 19.3 0.00 0.56 0.00 97 1011.2
20260509102417 18 13 11.3 16.1 0.00 0.56 0.00 97 1011.3
20260509102216 18 15 9.7 12.9 0.00 0.56 0.00 97 1011.2
20260509102026 18 12 8.0 11.3 0.00 0.56 0.00 97 1011.2
20260509101823 18 8 8.0 9.7 0.00 0.56 0.00 97 1011.2
20260509101641 18 15 8.0 11.3 0.00 0.56 0.00 97 1011.2
20260509101420 18 8 6.4 9.7 0.00 0.56 0.00 96 1011.1
20260509101218 18 19 11.3 16.1 0.00 0.56 0.00 96 1011.2
20260509101040 18 24 11.3 17.7 0.00 0.56 0.00 96 1011.1
20260509100815 18 26 9.7 14.5 0.00 0.56 0.00 96 1011.1
20260509100624 18 20 11.3 16.1 0.00 0.56 0.00 96 1011.1
20260509100423 18 21 11.3 17.7 0.00 0.56 0.00 96 1011.0
20260509100221 18 21 11.3 16.1 0.00 0.56 0.00 96 1010.8
20260509100020 18 20 11.3 16.1 0.00 0.56 0.00 96 1010.9
20260509095819 18 20 11.3 16.1 0.00 0.56 0.00 96 1010.8
20260509095617 18 20 12.9 17.7 0.00 0.56 0.00 96 1010.7
20260509095438 18 24 16.1 22.5 0.00 0.56 0.00 96 1010.6
20260509095224 18 21 14.5 17.7 0.00 0.56 0.00 96 1010.7
20260509095025 18 24 17.7 24.1 0.00 0.56 0.00 96 1010.6
20260509094821 18 29 14.5 22.5 0.00 0.56 0.00 96 1010.6
20260509094620 18 24 14.5 19.3 0.00 0.56 0.00 96 1010.4
20260509094418 18 26 14.5 17.7 0.00 0.56 0.00 96 1010.7
20260509094249 18 25 16.1 17.7 0.00 0.56 0.00 96 1010.3
20260509093824 18 20 17.7 22.5 0.00 0.56 0.00 96 1010.4
20260509093622 18 16 11.3 20.9 0.00 0.56 0.00 96 1010.3
20260509093421 18 13 9.7 12.9 0.00 0.56 0.00 96 1010.4
20260509093220 19 12 11.3 14.5 0.00 0.56 0.00 96 1010.4
20260509093018 19 12 14.5 17.7 0.00 0.56 0.00 96 1010.5
20260509092817 19 19 12.9 17.7 0.00 0.56 0.00 96 1010.5
20260509092625 19 14 9.7 14.5 0.00 0.56 0.00 96 1010.4
20260509092424 19 10 8.0 11.3 0.00 0.56 0.00 96 1010.4
20260509092243 19 4 8.0 12.9 0.00 0.56 0.00 96 1010.3
20260509092021 19 15 9.7 11.3 0.00 0.56 0.00 96 1010.4
20260509091820 19 16 9.7 12.9 0.00 0.56 0.00 96 1010.4
20260509091618 19 10 6.4 9.7 0.00 0.56 0.00 96 1010.5
20260509091417 19 13 11.3 14.5 0.00 0.56 0.00 96 1010.3
20260509091217 19 12 9.7 14.5 0.00 0.56 0.00 96 1010.3
20260509091025 19 6 9.7 16.1 0.00 0.56 0.00 95 1010.3
20260509090823 19 11 8.0 12.9 0.00 0.56 0.00 95 1010.4
20260509090621 19 15 9.7 12.9 0.00 0.56 0.00 95 1010.2
20260509090420 19 12 11.3 16.1 0.00 0.56 0.00 95 1010.4
20260509090218 19 14 9.7 14.5 0.00 0.56 0.00 95 1010.3
20260509090017 19 9 9.7 14.5 0.00 0.56 0.00 95 1010.3
20260509085847 19 19 9.7 16.1 0.00 0.56 0.00 95 1010.2
20260509085624 19 21 11.3 16.1 0.00 0.56 0.00 95 1010.4
20260509085425 19 16 11.3 14.5 0.00 0.56 0.00 95 1010.5
20260509085221 19 6 9.7 14.5 0.00 0.56 0.00 95 1010.3
20260509085022 19 12 11.3 14.5 0.00 0.56 0.00 95 1010.3
20260509084818 19 25 14.5 22.5 0.00 0.56 0.00 95 1010.4
20260509084617 19 13 11.3 19.3 0.00 0.56 0.00 95 1010.4
20260509084425 19 17 14.5 17.7 0.00 0.56 0.00 95 1010.4
20260509084224 19 27 16.1 22.5 0.00 0.56 0.00 95 1010.2
20260509084022 19 18 16.1 25.7 0.00 0.56 0.00 94 1010.4
20260509083821 19 32 19.3 27.4 0.00 0.56 0.00 94 1010.4
20260509083620 20 26 22.5 30.6 0.00 0.56 0.00 94 1010.6
20260509083418 20 11 14.5 24.1 0.00 0.56 0.00 94 1010.5
20260509083216 20 19 14.5 19.3 0.00 0.56 0.00 94 1010.6
20260509083045 20 14 16.1 22.5 0.00 0.56 0.00 94 1010.5
20260509082824 20 8 12.9 19.3 0.00 0.56 0.00 94 1010.5
20260509082625 20 9 14.5 20.9 0.00 0.56 0.00 93 1010.6
20260509082423 20 8 16.1 24.1 0.00 0.56 0.00 93 1010.6
20260509082220 20 2 9.7 17.7 0.00 0.56 0.00 93 1010.5
20260509082018 20 12 14.5 20.9 0.00 0.56 0.00 92 1010.6
20260509081817 20 13 17.7 24.1 0.00 0.56 0.00 92 1010.4
20260509081625 20 14 17.7 29.0 0.00 0.56 0.00 92 1010.4
20260509081444 20 14 20.9 30.6 0.00 0.56 0.00 92 1010.4
20260509081222 20 7 16.1 20.9 0.00 0.56 0.00 92 1010.4
20260509081021 20 16 14.5 29.0 0.00 0.56 0.00 91 1010.5
20260509080839 20 3 17.7 30.6 0.00 0.56 0.00 91 1010.3
20260509080618 20 8 20.9 30.6 0.00 0.56 0.00 91 1010.3
20260509080416 20 15 17.7 24.1 0.00 0.56 0.00 90 1010.3
20260509080225 20 12 16.1 25.7 0.00 0.56 0.00 90 1010.5
20260509080024 20 358 11.3 24.1 0.00 0.56 0.00 90 1010.4
20260509075822 20 327 11.3 17.7 0.00 0.56 0.00 90 1010.3
20260509075621 20 346 12.9 24.1 0.00 0.56 0.00 89 1010.3
20260509075420 20 329 17.7 30.6 0.00 0.56 0.00 88 1010.3
20260509075220 20 359 16.1 24.1 0.00 0.56 0.00 87 1010.4
20260509075016 21 335 16.1 30.6 0.00 0.56 0.00 86 1010.2
20260509074825 21 326 14.5 24.1 0.00 0.56 0.00 85 1010.3
20260509074623 21 332 12.9 24.1 0.00 0.56 0.00 84 1010.3
20260509074424 21 322 22.5 33.8 0.00 0.56 0.00 81 1010.4
20260509074222 21 334 16.1 29.0 0.00 0.56 0.00 79 1010.2
20260509074019 21 333 14.5 22.5 0.00 0.56 0.00 77 1010.1
20260509073819 21 336 11.3 20.9 0.00 0.56 0.00 80 1010.0
20260509073636 21 318 16.1 30.6 0.00 0.56 0.00 82 1009.7
20260509073425 21 295 25.7 33.8 0.00 0.56 0.00 81 1009.7
20260509073226 21 313 25.7 29.0 0.00 0.56 0.00 82 1009.9
20260509073022 21 288 20.9 30.6 0.00 0.56 0.00 83 1009.7
20260509072820 22 304 43.5 56.3 0.00 0.56 0.00 80 1009.3
20260509072621 23 288 32.2 40.2 0.00 0.56 0.00 67 1008.6
20260509072418 21 213 17.7 20.9 0.00 0.56 0.00 73 1008.3
20260509072219 21 311 12.9 22.5 0.00 0.56 0.00 82 1008.6
20260509072026 21 232 19.3 27.4 0.00 0.56 0.00 79 1008.3
20260509071823 22 241 17.7 27.4 0.00 0.56 0.00 80 1008.2
20260509071642 22 231 27.4 40.2 0.00 0.56 0.00 74 1008.3
20260509071421 20 212 19.3 30.6 0.00 0.56 0.00 84 1008.5
20260509071219 20 310 11.3 20.9 0.00 0.56 0.00 92 1008.7
20260509071037 20 106 16.1 29.0 0.00 0.56 0.00 92 1008.6
20260509070820 20 153 25.7 32.2 0.00 0.56 0.00 93 1008.5
20260509070625 20 179 24.1 30.6 0.00 0.56 0.00 91 1008.8
20260509070423 20 204 12.9 16.1 0.00 0.56 0.00 92 1009.7
20260509070222 20 199 12.9 19.3 0.00 0.56 0.00 92 1010.0
20260509070020 20 215 14.5 17.7 0.00 0.56 0.00 91 1010.2
20260509065821 20 212 19.3 27.4 0.00 0.56 0.00 91 1010.4
20260509065620 20 217 17.7 20.9 0.00 0.56 0.00 92 1010.2
20260509065436 20 207 27.4 33.8 0.00 0.56 0.00 92 1010.2
20260509065225 20 214 19.3 24.1 0.00 0.56 0.00 93 1010.5
20260509065023 20 231 17.7 25.7 0.00 0.56 0.00 93 1010.6
20260509064822 20 245 19.3 29.0 0.00 0.56 0.00 92 1010.5
20260509064620 20 230 19.3 29.0 0.00 0.56 0.00 92 1010.6
20260509064419 20 217 22.5 29.0 0.00 0.56 0.00 93 1010.5
20260509064218 20 216 19.3 30.6 0.00 0.56 0.00 93 1010.7
20260509064017 20 203 17.7 24.1 0.00 0.56 0.00 92 1010.8
20260509063825 20 205 25.7 33.8 0.00 0.56 0.00 92 1010.7
20260509063623 20 201 24.1 30.6 0.00 0.56 0.00 92 1010.8
20260509063442 20 209 20.9 27.4 0.00 0.56 0.00 92 1010.9
20260509063221 20 202 20.9 29.0 0.00 0.56 0.00 92 1010.8
20260509063019 20 215 25.7 33.8 0.00 0.56 0.00 92 1010.9
20260509062818 20 212 19.3 27.4 0.00 0.56 0.00 92 1010.8
20260509062616 20 226 19.3 29.0 0.00 0.56 0.00 92 1011.1
20260509062425 20 205 24.1 35.4 0.00 0.56 0.00 93 1011.2
20260509062226 20 204 19.3 25.7 0.00 0.56 0.00 92 1011.2
20260509062024 20 202 17.7 24.1 0.00 0.56 0.00 93 1011.3
20260509061821 20 201 19.3 27.4 0.00 0.56 0.00 92 1011.3
20260509061619 20 204 25.7 33.8 0.00 0.56 0.00 93 1011.3
20260509061417 20 199 24.1 30.6 0.00 0.56 0.00 93 1011.3
20260509061216 20 207 19.3 29.0 0.00 0.56 0.00 93 1011.6
20260509061025 20 205 24.1 30.6 0.00 0.56 0.00 93 1011.6
20260509060823 20 209 25.7 33.8 0.00 0.56 0.00 93 1011.8
20260509060626 20 201 27.4 32.2 0.00 0.56 0.00 93 1011.8
20260509060420 20 203 27.4 32.2 0.00 0.56 0.00 93 1011.8
20260509060219 20 209 19.3 25.7 0.00 0.56 0.00 93 1011.9
20260509060018 20 205 22.5 27.4 0.00 0.56 0.00 93 1011.9
20260509055856 20 210 24.1 27.4 0.00 0.56 0.00 93 1011.9
20260509055625 20 228 20.9 27.4 0.00 0.56 0.00 93 1012.3
20260509055424 20 227 19.3 22.5 0.00 0.56 0.00 93 1012.3
20260509055222 20 228 24.1 32.2 0.00 0.56 0.00 93 1012.2
20260509055021 20 231 20.9 25.7 0.00 0.56 0.00 93 1012.2
20260509054839 20 224 19.3 24.1 0.00 0.56 0.00 93 1012.4
20260509054638 20 251 16.1 19.3 0.00 0.56 0.00 93 1012.4
20260509054416 20 255 14.5 19.3 0.00 0.56 0.00 93 1012.5
20260509054225 20 239 11.3 14.5 0.00 0.56 0.00 93 1012.2
20260509054023 20 199 9.7 12.9 0.00 0.56 0.00 93 1012.2
20260509053822 20 210 9.7 14.5 0.00 0.56 0.00 93 1012.1
20260509053620 20 205 16.1 22.5 0.00 0.56 0.00 93 1012.0
20260509053419 20 202 20.9 25.7 0.00 0.56 0.00 93 1012.0
20260509053217 20 207 20.9 25.7 0.00 0.56 0.00 93 1011.8
20260509053036 20 207 17.7 24.1 0.00 0.56 0.00 93 1011.9
20260509052825 20 221 12.9 16.1 0.00 0.56 0.00 93 1011.9
20260509052625 20 234 16.1 19.3 0.00 0.56 0.00 93 1012.0
20260509052422 20 206 20.9 25.7 0.00 0.56 0.00 93 1011.4
20260509052223 19 207 20.9 29.0 0.00 0.56 0.00 93 1011.5
20260509052019 19 203 20.9 27.4 0.00 0.56 0.00 93 1011.7
20260509051817 19 202 20.9 25.7 0.00 0.56 0.00 93 1011.9
20260509051616 20 215 19.3 25.7 0.00 0.56 0.00 93 1012.0
20260509051424 20 218 19.3 22.5 0.00 0.56 0.00 93 1012.1
20260509051223 20 205 17.7 22.5 0.00 0.56 0.00 93 1012.2
20260509051022 19 210 14.5 19.3 0.00 0.56 0.00 93 1012.3
20260509050840 19 231 14.5 20.9 0.00 0.56 0.00 93 1012.6
20260509050619 19 226 16.1 20.9 0.00 0.56 0.00 94 1012.2
20260509050418 19 195 17.7 24.1 0.00 0.56 0.00 94 1012.2
20260509050219 19 181 14.5 17.7 0.00 0.56 0.00 93 1012.0
20260509050025 19 185 11.3 12.9 0.00 0.56 0.56 93 1012.4
20260509045823 19 220 9.7 12.9 0.00 0.56 0.56 93 1012.8
20260509045622 19 236 11.3 14.5 0.00 0.56 0.56 93 1012.7
20260509045423 19 226 12.9 16.1 0.00 0.56 0.56 93 1012.5
20260509045219 19 209 9.7 12.9 0.00 0.56 0.56 93 1012.5
20260509045017 19 204 9.7 11.3 0.00 0.56 0.56 93 1012.4
20260509044816 19 207 9.7 11.3 0.00 0.56 0.56 93 1012.3
20260509044624 19 179 8.0 9.7 0.00 0.56 0.56 93 1012.4
20260509044443 19 169 11.3 12.9 0.00 0.56 0.56 93 1012.2
20260509044222 19 177 11.3 14.5 0.00 0.56 0.56 93 1012.4
20260509044040 19 176 11.3 14.5 0.00 0.56 0.56 93 1012.4
20260509043819 20 171 12.9 16.1 0.00 0.56 0.56 92 1012.1
20260509043618 20 171 16.1 17.7 0.00 0.56 0.56 91 1012.2
20260509043416 20 173 14.5 16.1 0.00 0.56 0.56 91 1012.5
20260509043225 20 182 12.9 16.1 0.00 0.56 0.56 92 1012.9
20260509043023 20 194 11.3 16.1 0.00 0.56 0.56 91 1012.9
20260509042822 20 197 11.3 14.5 0.00 0.56 0.56 91 1013.1
20260509042621 20 199 11.3 14.5 0.00 0.56 0.56 90 1013.3
20260509042419 20 226 6.4 8.0 0.00 0.56 0.56 90 1013.3
20260509042217 20 235 6.4 8.0 0.00 0.56 0.56 90 1013.6
20260509042036 20 245 9.7 12.9 0.00 0.56 0.56 90 1013.7
20260509041825 20 242 8.0 9.7 0.00 0.56 0.56 90 1013.7
20260509041644 20 261 9.7 9.7 0.00 0.56 0.56 89 1013.8
20260509041422 20 309 4.8 6.4 0.00 0.56 0.56 89 1013.7
20260509041220 20 329 9.7 16.1 0.00 0.56 0.56 90 1014.0
20260509041019 20 345 11.3 17.7 0.00 0.56 0.56 90 1014.0
20260509040858 20 346 8.0 17.7 0.00 0.56 0.56 90 1014.0
20260509040616 20 346 16.1 29.0 0.00 0.56 0.56 91 1014.3
20260509040425 20 352 16.1 37.0 0.00 0.56 0.56 92 1014.2
20260509040224 20 331 17.7 30.6 0.00 0.56 0.56 92 1014.1
20260509040022 19 326 25.7 37.0 0.00 0.56 0.56 92 1014.0
20260509035820 19 321 29.0 40.2 0.00 0.56 0.56 93 1013.7
20260509035619 19 326 20.9 29.0 0.00 0.56 0.56 93 1013.1
20260509035420 19 325 14.5 17.7 0.00 0.56 0.56 93 1012.6
20260509035216 19 334 4.8 8.0 0.00 0.56 0.56 93 1012.4
20260509035025 19 5 3.2 4.8 0.00 0.56 0.56 93 1012.1
20260509034823 19 23 4.8 6.4 0.00 0.56 0.56 92 1012.3
20260509034622 19 27 6.4 6.4 0.00 0.56 0.56 92 1012.1
20260509034421 19 39 4.8 4.8 0.00 0.56 0.56 92 1012.1
20260509034219 19 59 4.8 4.8 0.00 0.56 0.56 92 1012.1
20260509034018 19 77 4.8 6.4 0.00 0.56 0.56 91 1011.9
20260509033836 19 77 4.8 6.4 0.00 0.56 0.56 91 1011.9
20260509033644 19 84 4.8 6.4 0.00 0.56 0.56 91 1011.6
20260509033443 20 104 4.8 8.0 0.00 0.56 0.56 91 1011.6
20260509033242 19 139 4.8 6.4 0.00 0.56 0.56 91 1011.6
20260509033020 19 158 6.4 6.4 0.00 0.56 0.56 91 1011.5
20260509032819 20 160 4.8 6.4 0.00 0.56 0.56 91 1011.6
20260509032617 20 153 6.4 9.7 0.00 0.56 0.56 91 1011.4
20260509032416 20 137 8.0 12.9 0.00 0.56 0.56 90 1011.5
20260509032245 20 121 8.0 11.3 0.00 0.56 0.56 90 1011.5
20260509032023 20 113 9.7 9.7 0.00 0.56 0.56 90 1011.3
20260509031822 20 116 9.7 12.9 0.00 0.56 0.56 90 1011.4
20260509031620 20 114 9.7 14.5 0.00 0.56 0.56 90 1011.3
20260509031419 20 108 6.4 11.3 0.00 0.56 0.56 90 1011.4
20260509031217 20 109 11.3 14.5 0.00 0.56 0.56 90 1011.3
20260509031016 20 104 6.4 9.7 0.00 0.56 0.56 90 1011.3
20260509030824 20 110 11.3 16.1 0.00 0.56 0.56 90 1011.4
20260509030625 20 126 9.7 12.9 0.00 0.56 0.56 89 1011.3
20260509030502 20 142 11.3 17.7 0.00 0.56 0.56 90 1011.3
20260509030220 20 151 11.3 14.5 0.00 0.56 0.56 90 1011.2
20260509030018 20 154 9.7 14.5 0.00 0.56 0.56 90 1011.1
20260509025817 20 161 12.9 17.7 0.00 0.56 0.56 90 1011.0
20260509025615 20 163 12.9 17.7 0.00 0.56 0.56 90 1010.9
20260509025424 20 159 11.3 16.1 0.00 0.56 0.56 89 1011.3
20260509025223 20 148 12.9 19.3 0.00 0.56 0.56 89 1010.9
20260509025022 20 139 11.3 16.1 0.00 0.56 0.56 89 1011.2
20260509024820 20 133 9.7 12.9 0.00 0.56 0.56 89 1011.1
20260509024618 20 120 9.7 12.9 0.00 0.56 0.56 89 1011.0
20260509024417 20 114 11.3 14.5 0.00 0.56 0.56 89 1011.1
20260509024225 20 110 11.3 14.5 0.00 0.56 0.56 89 1011.0
20260509024024 20 120 14.5 20.9 0.00 0.56 0.56 89 1010.8
20260509023824 20 119 12.9 17.7 0.00 0.56 0.56 89 1010.8
20260509023621 20 114 16.1 19.3 0.00 0.56 0.56 89 1010.8
20260509023420 20 114 14.5 19.3 0.00 0.56 0.56 89 1010.9
20260509023218 20 114 12.9 16.1 0.00 0.56 0.56 89 1011.0
20260509023016 20 109 12.9 17.7 0.00 0.56 0.56 89 1010.9
20260509022825 20 102 6.4 12.9 0.00 0.56 0.56 89 1011.2
20260509022624 20 98 6.4 11.3 0.00 0.56 0.56 89 1011.2
20260509022422 20 93 6.4 9.7 0.00 0.56 0.56 89 1011.3
20260509022220 20 87 8.0 11.3 0.00 0.56 0.56 89 1011.3
20260509022019 20 67 9.7 12.9 0.00 0.56 0.56 89 1011.4
20260509021838 20 62 8.0 11.3 0.00 0.56 0.56 89 1011.7
20260509021616 20 47 9.7 14.5 0.00 0.56 0.56 88 1011.6
20260509021425 20 41 11.3 17.7 0.00 0.56 0.56 89 1011.6
20260509021224 20 37 11.3 17.7 0.00 0.56 0.56 88 1011.8
20260509021042 20 39 12.9 14.5 0.00 0.56 0.56 88 1011.5
20260509020821 20 29 12.9 17.7 0.00 0.56 0.56 88 1011.3
20260509020619 20 35 11.3 14.5 0.00 0.56 0.56 87 1011.2
20260509020418 20 31 11.3 14.5 0.00 0.56 0.56 87 1011.0
20260509020236 20 32 11.3 12.9 0.00 0.56 0.56 87 1010.7
20260509020045 20 50 9.7 12.9 0.00 0.56 0.56 87 1010.7
20260509015845 20 67 8.0 11.3 0.00 0.56 0.56 87 1010.4
20260509015642 20 86 6.4 9.7 0.00 0.56 0.56 86 1010.4
20260509015423 20 91 4.8 9.7 0.00 0.56 0.56 86 1010.2
20260509015219 21 107 6.4 11.3 0.00 0.56 0.56 86 1010.1
20260509015017 21 113 8.0 11.3 0.00 0.56 0.56 85 1010.0
20260509014816 21 119 8.0 12.9 0.00 0.56 0.56 85 1009.7
20260509014626 21 117 9.7 12.9 0.00 0.56 0.56 85 1009.7
20260509014423 21 130 9.7 16.1 0.00 0.56 0.56 85 1009.5
20260509014242 21 144 9.7 16.1 0.00 0.56 0.56 85 1009.6
20260509014020 21 158 16.1 20.9 0.00 0.56 0.56 85 1009.3
20260509013819 21 158 14.5 19.3 0.00 0.56 0.56 85 1009.4
20260509013637 21 156 14.5 20.9 0.00 0.56 0.56 85 1009.4
20260509013536 21 162 14.5 20.9 0.00 0.56 0.56 85 1009.4
20260509013226 21 156 12.9 22.5 0.00 0.56 0.56 85 1009.3
20260509013023 21 167 16.1 19.3 0.00 0.56 0.56 85 1009.2
20260509012822 21 166 17.7 24.1 0.00 0.56 0.56 85 1009.3
20260509012620 21 169 12.9 17.7 0.00 0.56 0.56 85 1009.3
20260509012419 21 166 16.1 20.9 0.00 0.56 0.56 85 1009.2
20260509012217 21 163 14.5 17.7 0.00 0.56 0.56 85 1009.2
20260509012016 21 162 14.5 17.7 0.00 0.56 0.56 84 1009.4
20260509011844 21 164 11.3 16.1 0.00 0.56 0.56 84 1009.3
20260509011623 21 168 17.7 20.9 0.00 0.56 0.56 83 1009.4
20260509011421 21 166 16.1 20.9 0.00 0.56 0.56 83 1009.4
20260509011220 21 163 17.7 22.5 0.00 0.56 0.56 83 1009.3
20260509011039 21 160 12.9 17.7 0.00 0.56 0.56 83 1009.6
20260509010817 21 163 14.5 20.9 0.00 0.56 0.56 83 1009.3
20260509010616 21 157 16.1 19.3 0.00 0.56 0.56 83 1009.2
20260509010424 21 158 16.1 19.3 0.00 0.56 0.56 83 1009.5
20260509010223 21 163 12.9 14.5 0.00 0.56 0.56 83 1009.6
20260509010022 22 164 17.7 22.5 0.00 0.56 0.56 82 1009.6
20260509005820 22 170 12.9 16.1 0.00 0.56 0.56 82 1009.7
20260509005618 22 171 11.3 14.5 0.00 0.56 0.56 82 1009.7
20260509005417 22 171 14.5 19.3 0.00 0.56 0.56 81 1009.7
20260509005226 22 175 14.5 17.7 0.00 0.56 0.56 81 1009.8
20260509005024 22 173 19.3 20.9 0.00 0.56 0.56 81 1009.9
20260509004823 22 176 16.1 19.3 0.00 0.56 0.56 81 1009.8
20260509004621 22 172 17.7 22.5 0.00 0.56 0.56 81 1010.0
20260509004440 22 181 14.5 22.5 0.00 0.56 0.56 80 1010.1
20260509004218 22 176 16.1 24.1 0.00 0.56 0.56 79 1009.9
20260509004017 22 176 16.1 24.1 0.00 0.56 0.56 79 1010.1
20260509003825 22 175 17.7 20.9 0.00 0.56 0.56 79 1009.9
20260509003644 22 194 16.1 19.3 0.00 0.56 0.56 78 1009.9
20260509003443 22 194 17.7 24.1 0.00 0.56 0.56 78 1010.0
20260509003221 22 201 16.1 20.9 0.00 0.56 0.56 78 1009.8
20260509003021 23 191 16.1 19.3 0.00 0.56 0.56 78 1009.7
20260509002818 23 184 20.9 30.6 0.00 0.56 0.56 77 1009.8
20260509002616 23 202 19.3 27.4 0.00 0.56 0.56 77 1009.8
20260509002425 23 193 14.5 17.7 0.00 0.56 0.56 77 1009.8
20260509002223 23 189 16.1 19.3 0.00 0.56 0.56 77 1010.0
20260509002024 23 179 17.7 20.9 0.00 0.56 0.56 76 1010.0
20260509001841 23 194 19.3 24.1 0.00 0.56 0.56 76 1009.9
20260509001619 23 189 12.9 17.7 0.00 0.56 0.56 76 1009.9
20260509001418 23 176 14.5 22.5 0.00 0.56 0.56 76 1010.0
20260509001218 23 168 16.1 20.9 0.00 0.56 0.56 75 1009.8
20260509001027 23 166 12.9 17.7 0.00 0.56 0.56 75 1009.9
20260509000944 23 164 16.1 20.9 0.00 0.56 0.56 75 1010.0
20260509000622 23 175 17.7 22.5 0.00 0.56 0.56 74 1009.6
20260509000420 23 171 20.9 27.4 0.00 0.56 0.56 74 1009.6
20260509000219 23 182 20.9 24.1 0.00 0.56 0.56 74 1009.6
20260509000021 23 179 20.9 27.4 0.00 0.56 0.56 74 1009.6
20260508235816 23 172 24.1 29.0 0.00 0.56 0.56 74 1009.7
20260508235625 23 171 24.1 29.0 0.00 0.56 0.56 74 1009.5
20260508235443 23 180 22.5 30.6 0.00 0.56 0.56 74 1009.6
20260508235222 23 184 20.9 27.4 0.00 0.56 0.56 74 1009.5
20260508235020 23 193 19.3 25.7 0.00 0.56 0.56 74 1009.5
20260508234841 23 179 19.3 29.0 0.00 0.56 0.56 74 1009.5
20260508234637 23 171 20.9 24.1 0.00 0.56 0.56 74 1009.5
20260508234416 24 179 17.7 20.9 0.00 0.56 0.56 74 1009.7
20260508234224 23 183 19.3 24.1 0.00 0.56 0.56 73 1009.7
20260508234023 24 173 19.3 27.4 0.00 0.56 0.56 73 1009.5
20260508233821 24 170 16.1 22.5 0.00 0.56 0.56 74 1009.5
20260508233640 24 155 20.9 25.7 0.00 0.56 0.56 72 1009.7
20260508233419 24 183 16.1 22.5 0.00 0.56 0.56 73 1009.6
20260508233217 24 179 16.1 19.3 0.00 0.56 0.56 73 1009.5
20260508233036 24 165 14.5 24.1 0.00 0.56 0.56 73 1009.4
20260508232824 24 176 19.3 24.1 0.00 0.56 0.56 73 1009.7
20260508232645 24 178 19.3 24.1 0.00 0.56 0.56 73 1009.6
20260508232424 24 173 19.3 24.1 0.00 0.56 0.56 73 1009.6
20260508232220 24 182 20.9 25.7 0.00 0.56 0.56 73 1009.5
20260508232018 24 177 20.9 24.1 0.00 0.56 0.56 72 1009.7
20260508231817 24 172 19.3 27.4 0.00 0.56 0.56 73 1009.7
20260508231615 25 153 12.9 22.5 0.00 0.56 0.56 72 1009.7
20260508231445 24 173 17.7 25.7 0.00 0.56 0.56 73 1009.7
20260508231222 24 165 20.9 25.7 0.00 0.56 0.56 72 1009.6
20260508231021 25 173 17.7 22.5 0.00 0.56 0.56 73 1009.9
20260508230820 24 170 16.1 22.5 0.00 0.56 0.56 73 1009.8
20260508230639 25 168 19.3 24.1 0.00 0.56 0.56 72 1009.9
20260508230417 25 149 17.7 20.9 0.00 0.56 0.56 72 1009.8
20260508230305 25 173 19.3 24.1 0.00 0.56 0.56 72 1010.0
20260508230044 25 173 22.5 27.4 0.00 0.56 0.56 72 1010.0
20260508225823 25 174 16.1 20.9 0.00 0.56 0.56 73 1009.8
20260508225623 25 159 19.3 24.1 0.00 0.56 0.56 71 1009.7
20260508225439 25 168 20.9 25.7 0.00 0.56 0.56 72 1009.9
20260508225218 25 168 20.9 27.4 0.00 0.56 0.56 72 1009.9
20260508225017 25 169 19.3 27.4 0.00 0.56 0.56 72 1010.0
20260508224945 25 152 20.9 30.6 0.00 0.56 0.56 71 1009.9
20260508224624 25 145 17.7 20.9 0.00 0.56 0.56 70 1009.9
20260508224422 25 152 14.5 24.1 0.00 0.56 0.56 71 1010.0
20260508224221 25 145 17.7 22.5 0.00 0.56 0.56 70 1009.9
20260508224021 25 140 16.1 22.5 0.00 0.56 0.56 70 1009.8
20260508223819 25 168 17.7 22.5 0.00 0.56 0.56 71 1010.0
20260508223616 25 158 14.5 24.1 0.00 0.56 0.56 70 1010.0
20260508223445 25 146 16.1 22.5 0.00 0.56 0.56 70 1010.1
20260508223224 25 162 16.1 24.1 0.00 0.56 0.56 70 1009.9
20260508223022 25 164 16.1 20.9 0.00 0.56 0.56 70 1009.9
20260508222823 25 160 16.1 24.1 0.00 0.56 0.56 70 1009.9
20260508222619 25 141 11.3 19.3 0.00 0.56 0.56 69 1010.0
20260508222438 25 165 16.1 19.3 0.00 0.56 0.56 71 1009.8
20260508222217 25 185 17.7 24.1 0.00 0.56 0.56 70 1009.9
20260508222025 25 166 11.3 17.7 0.00 0.56 0.56 71 1010.0
20260508221824 25 160 12.9 17.7 0.00 0.56 0.56 70 1010.1
20260508221622 25 158 17.7 20.9 0.00 0.56 0.56 71 1010.0
20260508221421 25 159 14.5 20.9 0.00 0.56 0.56 71 1010.1
20260508221219 25 179 14.5 17.7 0.00 0.56 0.56 71 1009.9
20260508221018 25 205 16.1 20.9 0.00 0.56 0.56 71 1009.9
20260508220836 25 187 14.5 20.9 0.00 0.56 0.56 71 1009.9
20260508220627 25 171 16.1 24.1 0.00 0.56 0.56 71 1009.7
20260508220424 25 183 17.7 22.5 0.00 0.56 0.56 70 1010.1
20260508220222 25 194 16.1 19.3 0.00 0.56 0.56 70 1009.9
20260508220021 25 142 16.1 22.5 0.00 0.56 0.56 69 1009.8
20260508215821 25 145 14.5 20.9 0.00 0.56 0.56 69 1009.9
20260508215621 25 140 12.9 16.1 0.00 0.56 0.56 68 1010.0
20260508215416 25 148 12.9 19.3 0.00 0.56 0.56 69 1010.1
20260508215225 26 156 14.5 20.9 0.00 0.56 0.56 69 1010.2
20260508215023 25 165 11.3 17.7 0.00 0.56 0.56 70 1010.0
20260508214822 25 138 11.3 16.1 0.00 0.56 0.56 69 1010.1
20260508214621 25 162 14.5 19.3 0.00 0.56 0.56 70 1010.2
20260508214419 25 154 16.1 24.1 0.00 0.56 0.56 70 1010.0
20260508214220 25 135 16.1 24.1 0.00 0.56 0.56 70 1010.3
20260508214019 25 154 19.3 24.1 0.00 0.56 0.56 69 1010.2
20260508213827 25 139 16.1 22.5 0.00 0.56 0.56 69 1010.3
20260508213623 25 171 17.7 22.5 0.00 0.56 0.56 71 1010.1
20260508213422 25 170 17.7 20.9 0.00 0.56 0.56 70 1010.2
20260508213223 25 169 19.3 22.5 0.00 0.56 0.56 71 1010.1
20260508213039 25 174 17.7 25.7 0.00 0.56 0.56 70 1010.3
20260508212817 25 167 11.3 17.7 0.00 0.56 0.56 71 1010.2
20260508212616 25 155 12.9 17.7 0.00 0.56 0.56 70 1010.2
20260508212427 25 192 17.7 22.5 0.00 0.56 0.56 70 1010.4
20260508212223 25 149 8.0 14.5 0.00 0.56 0.56 69 1010.4
20260508212022 24 170 14.5 20.9 0.00 0.56 0.56 71 1010.5
20260508211842 24 179 14.5 20.9 0.00 0.56 0.56 70 1010.4
20260508211619 25 169 16.1 24.1 0.00 0.56 0.56 70 1010.5
20260508211417 25 152 16.1 22.5 0.00 0.56 0.56 69 1010.4
20260508211218 25 130 14.5 20.9 0.00 0.56 0.56 69 1010.6
20260508211045 25 151 16.1 25.7 0.00 0.56 0.56 70 1010.5
20260508210823 25 151 14.5 22.5 0.00 0.56 0.56 71 1010.6
20260508210621 24 153 17.7 25.7 0.00 0.56 0.56 71 1010.4
20260508210422 24 186 22.5 27.4 0.00 0.56 0.56 72 1010.5
20260508210220 24 179 20.9 27.4 0.00 0.56 0.56 72 1010.6
20260508210017 24 183 22.5 29.0 0.00 0.56 0.56 72 1010.6
20260508205816 24 192 24.1 37.0 0.00 0.56 0.56 72 1010.5
20260508205624 24 195 20.9 29.0 0.00 0.56 0.56 72 1010.5
20260508205443 24 198 22.5 30.6 0.00 0.56 0.56 72 1010.7
20260508205221 24 204 24.1 37.0 0.00 0.56 0.56 73 1010.6
20260508205041 24 183 24.1 32.2 0.00 0.56 0.56 72 1010.7
20260508204818 24 201 20.9 30.6 0.00 0.56 0.56 72 1010.7
20260508204617 24 183 25.7 38.6 0.00 0.56 0.56 72 1010.8
20260508204416 25 182 20.9 25.7 0.00 0.56 0.56 72 1010.8
20260508204227 25 172 24.1 32.2 0.00 0.56 0.56 72 1010.9
20260508204023 25 187 25.7 33.8 0.00 0.56 0.56 72 1010.9
20260508203821 25 187 24.1 33.8 0.00 0.56 0.56 72 1010.9
20260508203640 25 186 14.5 17.7 0.00 0.56 0.56 72 1011.1
20260508203441 25 168 20.9 32.2 0.00 0.56 0.56 71 1011.0
20260508203219 25 167 22.5 32.2 0.00 0.56 0.56 71 1011.1
20260508203018 25 168 25.7 35.4 0.00 0.56 0.56 70 1011.0
20260508202844 25 152 19.3 25.7 0.00 0.56 0.56 70 1011.0
20260508202623 25 173 24.1 29.0 0.00 0.56 0.56 70 1011.1
20260508202421 25 181 24.1 30.6 0.00 0.56 0.56 70 1011.2
20260508202240 25 183 22.5 29.0 0.00 0.56 0.56 70 1011.2
20260508202018 25 188 19.3 25.7 0.00 0.56 0.56 70 1011.3
20260508201837 25 180 20.9 27.4 0.00 0.56 0.56 70 1011.2
20260508201625 24 174 22.5 30.6 0.00 0.56 0.56 69 1011.4
20260508201424 25 176 22.5 30.6 0.00 0.56 0.56 68 1011.5
20260508201222 25 175 20.9 24.1 0.00 0.56 0.56 70 1011.4
20260508201021 25 171 20.9 29.0 0.00 0.56 0.56 70 1011.4
20260508200819 25 173 17.7 24.1 0.00 0.56 0.56 71 1011.5
20260508200638 25 189 20.9 27.4 0.00 0.56 0.56 72 1011.4
20260508200419 24 176 24.1 29.0 0.00 0.56 0.56 72 1011.5
20260508200225 25 182 25.7 33.8 0.00 0.56 0.56 72 1011.3
20260508200024 25 182 25.7 33.8 0.00 0.56 0.56 72 1011.4
20260508195842 25 175 20.9 29.0 0.00 0.56 0.56 72 1011.4
20260508195621 25 167 20.9 27.4 0.00 0.56 0.56 71 1011.5
20260508195420 25 180 22.5 32.2 0.00 0.56 0.56 72 1011.4
20260508195218 24 189 17.7 27.4 0.00 0.56 0.56 73 1011.5
20260508195017 25 180 22.5 30.6 0.00 0.56 0.56 71 1011.4
20260508194825 25 154 19.3 27.4 0.00 0.56 0.56 70 1011.4
20260508194624 25 153 17.7 24.1 0.00 0.56 0.56 71 1011.5
20260508194442 25 160 19.3 22.5 0.00 0.56 0.56 70 1011.8
20260508194221 24 168 22.5 27.4 0.00 0.56 0.56 71 1011.7
20260508194019 25 144 19.3 25.7 0.00 0.56 0.56 70 1011.7
20260508193838 25 154 14.5 22.5 0.00 0.56 0.56 71 1011.7
20260508193618 24 164 19.3 29.0 0.00 0.56 0.56 71 1011.8
20260508193425 24 150 17.7 24.1 0.00 0.56 0.56 70 1011.9
20260508193243 25 170 16.1 20.9 0.00 0.56 0.56 71 1012.0
20260508193044 25 191 20.9 27.4 0.00 0.56 0.56 70 1011.9
20260508192821 25 199 22.5 27.4 0.00 0.56 0.56 70 1012.0
20260508192619 25 158 19.3 22.5 0.00 0.56 0.56 70 1012.2
20260508192419 25 187 16.1 20.9 0.00 0.56 0.56 71 1012.0
20260508192216 25 196 24.1 37.0 0.00 0.56 0.56 71 1012.0
20260508192045 25 200 22.5 30.6 0.00 0.56 0.56 70 1012.1
20260508191904 25 200 19.3 29.0 0.00 0.56 0.56 70 1012.2
20260508191622 25 191 19.3 27.4 0.00 0.56 0.56 69 1012.0
20260508191424 24 174 16.1 22.5 0.00 0.56 0.56 70 1012.1
20260508191219 24 181 17.7 22.5 0.00 0.56 0.56 69 1012.4
20260508191017 24 205 17.7 27.4 0.00 0.56 0.56 67 1012.4
20260508190816 24 174 12.9 17.7 0.00 0.56 0.56 69 1012.4
20260508190627 24 192 17.7 24.1 0.00 0.56 0.56 67 1012.3
20260508190446 24 144 16.1 19.3 0.00 0.56 0.56 66 1012.5
20260508190222 24 157 17.7 24.1 0.00 0.56 0.56 68 1012.7
20260508190040 25 172 20.9 24.1 0.00 0.56 0.56 68 1012.6